[[{"header":{"parameterUnit":"m.s-1","parameterCategory":1,"la1":30.2992,"la2":30.254,"lo1":-89.0895,"lo2":-89.0443,"dy":0.0025,"dx":0.0025,"nx":19,"ny":19,"refTime":"2026-03-13T09:00:00:Z","depth":0,"parameterNumber":2,"parameterNumberName":"U-component_of_WINDS"},"data":[0,0,0,1.1968,1.1971,1.212,1.2121,1.2305,1.2306,0,0,0,0,0,0,0,0,0,0,0,1.1922,1.1923,1.1968,1.1972,1.212,1.2121,1.2304,1.2306,0,0,0,0,0,0,0,0,0,0,0,1.1921,1.1922,1.1924,1.1972,1.212,1.2121,1.2304,1.2194,0,0,0,0,0,0,0,0,0,0,1.205,1.2004,1.1922,1.1924,1.1973,1.212,1.2121,1.2188,1.2201,1.2235,0,1.2266,0,1.2289,1.2318,1.2319,0,0,0,1.1973,1.1994,1.2037,1.1924,1.1975,1.212,1.2054,1.2195,1.2209,1.2251,1.2268,1.2275,1.2292,1.2319,1.232,1.2516,1.2517,0,0,1.1965,1.1946,1.2028,1.2046,1.2024,1.2049,1.2058,1.2204,1.2221,1.2269,1.228,1.2295,1.232,1.2322,1.2516,1.2517,0,0,0,1.194,1.194,1.198,1.2038,1.2066,1.2053,1.2064,1.2214,1.2229,1.2282,1.2297,1.2321,1.2324,1.2515,1.2516,1.2539,0,0,0,1.1936,1.1926,1.1976,1.1966,1.2063,1.2142,1.2071,1.2219,1.2236,1.2296,1.2322,1.2325,1.2514,1.2515,1.2536,1.2552,0,0,0,1.1913,1.1923,1.1944,1.1965,1.2028,1.214,1.2163,1.2223,1.2245,1.2319,1.2326,1.2513,1.2515,1.2534,1.2548,1.2597,0,0,0,1.1882,1.1961,1.1944,1.2039,1.2027,1.2155,1.2163,1.2258,1.2324,1.2322,1.2514,1.2516,1.2533,1.2546,1.2595,1.2633,1.2649,0,0,1.1971,1.1971,1.2029,1.2018,1.2144,1.2133,1.2263,1.234,1.2364,1.2464,1.2469,1.2537,1.2548,1.2597,1.2744,1.2756,0,0,0,1.2051,1.2091,1.2129,1.2192,1.2255,1.231,1.237,1.2399,1.2486,1.2412,1.257,1.2577,1.2606,1.2625,1.2636,1.2661,1.2525,1.2525,1.2524,1.2147,1.2176,1.2272,1.2319,1.238,1.2443,1.2495,1.2545,1.2554,1.2591,1.2619,1.2706,1.2728,1.2736,1.2762,1.2645,1.2645,1.2645,1.2645,1.2278,1.2339,1.2354,1.2452,1.2481,1.2564,1.2629,1.2633,1.2713,1.2686,1.2713,1.2679,1.2748,1.2772,1.2647,1.2647,1.2646,1.2646,1.2646,1.2342,1.2376,1.2413,1.2508,1.2579,1.2624,1.2701,1.2726,1.2749,1.2776,1.2808,1.2808,1.2809,1.2791,1.2791,1.2791,1.2791,1.2792,1.2792,1.2392,1.2433,1.2495,1.2572,1.2616,1.2678,1.2745,1.2789,1.2844,1.2855,1.2855,1.286,1.2751,1.2721,1.2797,1.2796,1.2795,1.2795,1.2794,1.2509,1.2487,1.2584,1.2629,1.2721,1.2789,1.2822,1.291,1.2951,1.2988,1.2989,1.2905,1.2906,1.2898,1.2873,1.2984,1.2984,1.2984,1.2984,1.256,1.2565,1.267,1.2741,1.2813,1.2853,1.2961,1.3015,1.3066,1.3093,1.3081,1.3052,1.3043,1.3049,1.3038,1.3015,1.3159,1.3159,1.316,1.2633,1.2646,1.2733,1.2786,1.286,1.2923,1.3026,1.3105,1.316,1.3167,1.3114,1.3106,1.306,1.3043,1.3045,1.3027,1.2986,0,0]},{"header":{"parameterUnit":"m.s-1","parameterCategory":1,"la1":30.2992,"la2":30.254,"lo1":-89.0895,"lo2":-89.0443,"dy":0.0025,"dx":0.0025,"nx":19,"ny":19,"refTime":"2026-03-13T09:00:00:Z","depth":0,"parameterNumber":3,"parameterNumberName":"V-component_of_WINDS"},"data":[0,0,0,4.4765,4.4767,4.4843,4.4843,4.4948,4.495,0,0,0,0,0,0,0,0,0,0,0,4.4751,4.4752,4.4765,4.4767,4.4843,4.4843,4.4948,4.495,0,0,0,0,0,0,0,0,0,0,0,4.4751,4.4752,4.4753,4.4768,4.4843,4.4843,4.4948,4.4887,0,0,0,0,0,0,0,0,0,0,4.4812,4.4808,4.4752,4.4754,4.4768,4.4843,4.4843,4.4884,4.4891,4.4919,0,4.4949,0,4.4952,4.4957,4.4958,0,0,0,4.476,4.4803,4.4816,4.4754,4.4769,4.4842,4.4807,4.4888,4.4896,4.4928,4.4951,4.4954,4.4953,4.4958,4.4959,4.5153,4.5154,0,0,4.4756,4.4769,4.481,4.4821,4.4814,4.4804,4.4809,4.4892,4.4916,4.4951,4.4957,4.4955,4.4959,4.496,4.5151,4.5153,0,0,0,4.4749,4.4766,4.4777,4.4817,4.483,4.4807,4.4812,4.4912,4.4915,4.4958,4.4956,4.496,4.4961,4.515,4.5152,4.5225,0,0,0,4.4746,4.4762,4.4775,4.4784,4.4829,4.4873,4.4831,4.4909,4.4918,4.4956,4.496,4.4962,4.5149,4.5151,4.522,4.5257,0,0,0,4.4743,4.4762,4.4776,4.4785,4.4818,4.4871,4.4879,4.4911,4.4918,4.4958,4.4963,4.5148,4.5151,4.5216,4.5249,4.531,0,0,0,4.4744,4.484,4.4777,4.4884,4.4818,4.4918,4.4878,4.4952,4.4995,4.496,4.5149,4.5152,4.5215,4.5245,4.5305,4.5361,4.5386,0,0,4.4872,4.4856,4.4917,4.4864,4.4979,4.4906,4.503,4.5057,4.5047,4.5117,4.5122,4.5222,4.5249,4.5309,4.553,4.555,0,0,0,4.4962,4.5006,4.5034,4.5077,4.5102,4.5124,4.5131,4.514,4.5199,4.5087,4.5261,4.5277,4.5311,4.5337,4.5354,4.5381,4.5165,4.5165,4.5165,4.5159,4.5145,4.5245,4.5239,4.5282,4.5288,4.532,4.5333,4.5305,4.5346,4.5365,4.5502,4.5533,4.5546,4.5574,4.5397,4.5397,4.5397,4.5397,4.5343,4.5401,4.5364,4.5447,4.543,4.5498,4.5508,4.5486,4.5545,4.5486,4.5516,4.545,4.5569,4.5592,4.5403,4.5402,4.5401,4.5401,4.54,4.5467,4.5492,4.5505,4.5566,4.5614,4.5605,4.5664,4.5647,4.563,4.566,4.5677,4.5675,4.5669,4.567,4.5671,4.5671,4.5672,4.5672,4.5672,4.5589,4.5601,4.5655,4.569,4.5715,4.5746,4.5754,4.5777,4.5798,4.578,4.578,4.5745,4.5585,4.5543,4.5679,4.5678,4.5677,4.5676,4.5676,4.5773,4.573,4.5812,4.5838,4.5877,4.5924,4.5904,4.5953,4.5969,4.5999,4.5959,4.5845,4.5825,4.5811,4.5776,4.5964,4.5964,4.5964,4.5964,4.5875,4.5866,4.5946,4.5988,4.6027,4.6016,4.6106,4.6114,4.6114,4.6123,4.6094,4.6047,4.6034,4.6022,4.6004,4.597,4.6204,4.6204,4.6204,4.5986,4.598,4.6061,4.6064,4.6093,4.6118,4.6201,4.6248,4.6239,4.6214,4.6128,4.6118,4.6042,4.6019,4.5987,4.5959,4.5897,0,0]}]]